Wind_Speed
43 43 43 43 44 44 44 45 45 45 45 45 46 46 46 46 46 46 46 47 47 48 49 49 50 50 50 51 51 51 51 51 51 51 51 52 53 53
42 42 42 42 43 43 44 45 46 46 46 46 46 46 46 47 47 47 48 48 48 49 49 49 49 50 51 50 50 51 51 51 51 52 52 53 54 53
41 41 41 42 42 43 43 44 45 46 46 45 46 46 46 47 47 48 49 49 49 49 49 49 49 50 51 50 50 50 50 50 50 51 52 52 52 53
41 41 41 42 43 43 44 44 45 46 46 46 46 46 46 47 47 47 47 48 48 48 49 49 49 49 49 49 49 49 49 50 50 49 49 50 51 50
41 42 42 42 43 43 44 44 44 45 46 46 45 46 46 46 47 46 46 46 46 47 48 49 49 49 49 49 49 49 49 49 49 49 49 49 49 50
41 42 42 43 42 43 43 44 45 45 46 45 45 45 46 46 46 46 45 46 46 47 48 49 50 50 50 49 49 48 48 48 47 47 47 48 48 48
41 41 42 42 43 43 44 44 45 45 45 45 45 45 45 45 45 46 46 46 47 47 48 49 50 50 49 48 47 47 46 46 45 46 46 46 47 47
41 41 42 42 42 43 44 45 45 45 45 44 44 44 43 44 45 45 46 46 47 47 47 47 47 47 47 46 46 46 46 46 46 46 46 46 46 46
42 42 42 43 43 43 43 44 44 44 44 44 44 44 44 44 45 45 45 45 45 44 44 44 44 44 44 44 44 44 45 45 46 46 45 45 44 44
42 43 43 43 43 42 42 43 43 43 43 44 44 44 44 44 44 44 44 43 42 42 42 41 41 41 42 43 43 44 44 44 44 43 42 42 41 41
42 43 43 43 43 42 42 42 42 43 43 44 44 45 45 44 44 43 42 41 40 40 41 40 39 39 40 41 41 42 42 42 41 41 40 39 39 39
42 42 42 43 43 43 43 43 43 44 44 45 45 44 44 43 42 41 40 39 39 38 38 38 37 37 36 36 36 37 38 39 39 39 39 39 39 39
41 41 42 42 42 42 43 43 43 44 44 44 43 43 42 40 39 39 38 38 37 37 36 36 35 35 34 33 34 35 36 36 37 38 38 39 39 39
41 41 41 41 41 42 42 42 42 42 42 41 40 39 38 37 37 36 36 36 35 35 35 35 34 33 33 33 34 34 35 35 36 36 36 37 37 38
39 40 40 40 40 40 40 40 40 39 39 38 37 36 35 35 34 33 33 33 33 33 33 33 32 32 33 33 34 34 34 34 35 35 35 35 36 36
38 38 38 38 38 38 38 38 38 38 37 36 35 34 33 33 32 32 32 32 32 32 32 31 32 33 33 33 33 33 33 33 33 33 33 33 33 33
36 36 36 36 36 36 36 36 36 36 35 34 33 32 31 31 31 31 31 31 31 30 30 31 31 32 32 31 30 31 31 31 30 30 29 30 30 29
33 34 34 35 35 34 34 34 34 34 33 32 30 30 30 30 30 30 30 30 30 30 29 29 29 29 30 29 28 27 28 28 27 27 27 27 27 27
32 32 33 32 32 32 33 32 32 31 31 30 29 28 28 28 29 29 29 28 28 28 27 27 27 27 26 26 26 25 25 25 25 25 24 24 23 23
31 31 31 31 31 31 31 31 30 29 29 28 28 27 27 27 27 27 27 26 26 26 26 26 25 24 24 24 23 23 22 21 21 21 21 20 20 19
30 30 30 30 30 30 30 30 29 28 27 27 27 26 26 26 26 26 25 25 25 24 23 23 22 22 21 21 21 20 20 18 17 17 18 17 16 17
29 29 29 29 29 29 29 28 28 26 26 25 25 25 25 25 24 24 23 22 22 21 21 20 20 19 19 19 19 19 18 17 16 15 15 15 15 15
27 28 28 28 28 28 27 26 25 25 24 24 23 23 23 23 22 22 21 21 20 19 19 19 18 18 18 19 18 17 16 16 15 15 14 14 15 15
Wind_Direction
274 275 275 276 276 278 280 280 281 281 280 279 279 279 278 277 277 277 276 276 275 275 275 275 275 274 275 275 275 275 275 274 275 274 275 275 276 275
275 275 276 277 278 280 280 280 281 281 280 281 280 280 280 279 278 278 277 277 277 277 276 275 275 275 275 275 276 276 275 275 275 275 275 275 275 275
274 274 276 278 279 280 281 281 282 282 282 281 281 281 281 281 281 280 279 277 276 276 275 275 275 276 276 276 276 276 275 275 275 276 275 275 275 275
275 276 277 278 279 280 281 282 283 282 282 282 282 281 281 281 282 281 280 278 276 275 274 274 275 276 277 277 276 276 276 276 276 276 276 276 275 275
275 277 278 278 279 282 282 282 283 284 284 283 283 282 281 281 281 281 281 279 278 277 276 275 275 277 277 276 276 276 276 276 276 277 277 276 276 276
276 277 278 279 280 282 282 282 283 284 284 284 284 283 282 282 281 280 280 279 278 278 278 278 277 277 277 277 276 276 276 277 277 278 278 278 277 277
275 276 278 280 281 282 283 284 284 285 285 285 284 283 283 282 281 281 280 279 279 280 280 280 279 277 276 276 275 276 276 277 278 279 278 278 278 278
276 277 279 280 281 283 284 285 285 286 286 286 285 284 284 283 283 283 281 281 281 281 281 280 278 277 276 275 276 276 277 278 279 279 279 279 279 278
277 278 278 280 281 283 285 285 286 286 287 287 286 286 285 285 285 284 283 282 282 282 282 280 279 277 275 275 275 276 278 279 280 280 279 279 279 278
278 279 279 280 281 283 284 285 286 286 287 287 288 287 287 286 285 284 283 282 281 281 282 282 280 278 276 275 275 277 278 278 279 279 278 279 279 279
278 279 279 280 281 282 283 284 286 286 286 287 288 288 287 286 285 284 283 282 281 281 281 282 280 278 278 277 277 277 277 278 278 278 278 279 279 278
277 278 278 279 280 281 283 284 284 286 287 287 287 288 287 285 284 284 283 282 282 281 281 281 280 279 278 277 277 277 278 278 277 278 278 279 279 278
275 277 278 279 280 282 283 284 285 286 287 287 287 286 285 283 283 283 283 283 283 282 282 281 281 280 279 278 277 278 280 279 278 278 278 279 279 279
276 277 278 279 281 282 283 284 285 287 287 287 287 286 284 282 282 282 283 284 285 284 283 282 282 281 280 279 278 278 281 281 281 280 281 281 280 279
278 279 279 280 282 283 284 285 286 287 288 286 285 285 284 283 283 282 283 284 286 285 283 284 284 284 282 281 280 280 281 281 282 283 283 284 282 280
279 279 280 281 282 283 284 285 286 287 287 286 285 283 283 284 283 282 284 285 286 285 284 283 284 285 284 283 283 282 281 282 282 284 285 285 285 283
279 280 281 282 283 284 285 286 287 288 288 286 285 283 283 284 284 284 285 286 286 286 285 284 285 286 286 286 285 284 282 282 283 285 285 286 286 283
279 280 282 283 284 285 286 287 287 288 288 286 284 283 283 283 283 284 285 285 285 286 286 285 285 285 285 286 286 286 285 284 284 285 286 287 286 284
280 281 283 283 285 286 286 287 287 287 286 285 284 284 285 285 285 284 284 284 286 286 286 285 286 286 286 287 287 287 287 286 287 289 289 289 288 285
281 283 283 283 285 287 288 288 288 287 285 284 283 284 285 286 286 285 285 285 285 286 287 287 289 288 286 286 287 288 289 290 290 290 290 290 290 288
281 283 283 284 284 286 288 288 287 287 285 284 283 283 284 285 286 285 286 286 285 285 287 288 289 289 288 288 288 289 291 290 288 288 290 291 292 291
282 283 284 284 284 285 287 288 287 286 285 285 285 284 284 284 285 286 287 288 287 286 288 289 289 289 287 287 287 286 286 287 287 287 290 292 294 295
283 284 284 284 285 287 287 287 287 287 286 286 284 285 285 284 284 286 287 287 286 286 287 287 288 288 288 288 287 286 285 285 286 289 291 294 296 297
Height
5669 5668 5666 5665 5663 5661 5659 5657 5656 5654 5653 5650 5648 5645 5642 5640 5638 5636 5634 5632 5630 5629 5627 5626 5624 5623 5621 5620 5618 5617 5615 5614 5613 5612 5611 5610 5608 5607
5657 5656 5655 5653 5651 5650 5648 5645 5643 5642 5640 5638 5635 5633 5630 5628 5625 5623 5621 5619 5617 5615 5613 5612 5610 5609 5607 5605 5604 5602 5601 5599 5598 5597 5595 5594 5593 5591
5646 5645 5644 5642 5640 5639 5636 5634 5632 5630 5628 5626 5623 5620 5618 5615 5612 5610 5607 5605 5603 5601 5600 5598 5596 5595 5593 5591 5589 5588 5586 5585 5583 5582 5580 5579 5577 5576
5636 5634 5633 5631 5629 5627 5625 5623 5620 5618 5616 5614 5611 5608 5605 5603 5600 5597 5594 5592 5590 5588 5586 5584 5582 5581 5579 5577 5575 5574 5572 5571 5569 5568 5566 5565 5563 5561
5625 5623 5622 5620 5618 5616 5614 5611 5608 5606 5603 5601 5599 5596 5593 5590 5587 5585 5582 5579 5577 5574 5572 5570 5569 5567 5565 5563 5561 5559 5558 5557 5555 5553 5551 5550 5548 5546
5614 5612 5611 5609 5607 5605 5602 5600 5597 5594 5591 5588 5586 5583 5580 5577 5574 5572 5570 5567 5564 5562 5559 5557 5555 5553 5551 5549 5548 5546 5544 5542 5541 5539 5537 5535 5534 5532
5603 5601 5599 5598 5595 5593 5591 5588 5585 5582 5579 5576 5573 5571 5568 5565 5562 5559 5557 5555 5552 5549 5547 5544 5541 5539 5537 5535 5533 5532 5530 5529 5527 5525 5523 5521 5519 5518
5591 5589 5588 5586 5584 5581 5579 5576 5573 5570 5567 5564 5561 5558 5555 5552 5549 5546 5544 5542 5540 5538 5534 5531 5527 5525 5523 5522 5520 5519 5517 5515 5514 5512 5510 5508 5506 5504
5580 5578 5576 5574 5572 5570 5567 5564 5561 5558 5555 5552 5549 5546 5543 5540 5537 5534 5531 5528 5526 5523 5520 5518 5515 5512 5510 5509 5507 5505 5504 5502 5500 5499 5497 5495 5493 5491
5568 5566 5565 5562 5560 5558 5555 5552 5549 5546 5543 5540 5537 5534 5530 5527 5524 5521 5518 5516 5514 5510 5507 5505 5503 5500 5498 5496 5494 5492 5491 5489 5487 5486 5484 5482 5481 5479
5556 5554 5552 5551 5548 5546 5544 5541 5538 5534 5531 5527 5524 5521 5518 5514 5511 5509 5506 5504 5502 5499 5495 5493 5491 5489 5487 5484 5482 5479 5478 5476 5475 5473 5472 5471 5469 5467
5544 5542 5540 5538 5536 5533 5531 5529 5526 5523 5519 5516 5512 5509 5505 5502 5499 5496 5493 5491 5489 5487 5485 5482 5479 5477 5476 5474 5470 5468 5466 5465 5464 5462 5461 5459 5457 5455
5532 5530 5528 5526 5524 5521 5519 5516 5514 5511 5507 5504 5500 5496 5493 5490 5487 5484 5482 5479 5477 5475 5473 5471 5468 5466 5464 5463 5461 5458 5456 5454 5453 5451 5449 5447 5446 5444
5519 5518 5516 5514 5512 5509 5507 5504 5501 5498 5495 5491 5488 5485 5482 5479 5476 5474 5471 5469 5466 5464 5462 5460 5458 5456 5454 5452 5451 5449 5446 5444 5442 5440 5438 5436 5434 5432
5507 5505 5504 5502 5500 5498 5495 5492 5489 5486 5483 5480 5477 5474 5471 5469 5466 5464 5461 5459 5457 5454 5452 5450 5448 5446 5444 5442 5441 5439 5437 5434 5432 5430 5428 5426 5423 5421
5495 5494 5492 5490 5488 5486 5484 5481 5478 5475 5472 5469 5466 5464 5461 5459 5457 5454 5452 5450 5448 5446 5443 5441 5438 5436 5434 5432 5430 5428 5426 5425 5423 5420 5418 5416 5413 5411
5484 5483 5481 5480 5478 5475 5473 5470 5467 5464 5462 5459 5457 5454 5452 5450 5448 5445 5443 5441 5439 5437 5435 5433 5430 5427 5425 5423 5421 5419 5417 5415 5413 5411 5409 5407 5404 5402
5473 5472 5471 5469 5467 5465 5462 5460 5457 5455 5452 5449 5447 5445 5443 5441 5439 5437 5435 5432 5430 5428 5426 5424 5422 5419 5417 5415 5413 5411 5408 5406 5404 5402 5400 5398 5396 5394
5464 5462 5461 5459 5457 5455 5453 5450 5448 5445 5443 5440 5439 5437 5435 5433 5431 5429 5426 5424 5422 5420 5418 5416 5413 5411 5409 5408 5406 5403 5401 5399 5397 5395 5393 5391 5389 5387
5454 5453 5451 5449 5448 5445 5443 5441 5438 5436 5434 5432 5430 5429 5427 5425 5423 5421 5418 5416 5414 5412 5410 5408 5406 5404 5402 5401 5399 5397 5394 5392 5390 5389 5387 5385 5383 5381
5445 5443 5442 5440 5438 5436 5434 5432 5430 5427 5425 5424 5422 5420 5419 5417 5415 5413 5411 5409 5407 5405 5404 5402 5400 5398 5395 5394 5392 5391 5388 5386 5385 5383 5381 5380 5378 5376
5436 5434 5433 5431 5429 5427 5426 5423 5421 5419 5417 5416 5414 5412 5411 5409 5408 5406 5404 5402 5400 5399 5397 5396 5394 5392 5390 5388 5387 5385 5383 5382 5380 5378 5376 5375 5373 5371
5427 5425 5424 5422 5421 5419 5417 5415 5413 5411 5409 5408 5406 5405 5403 5402 5401 5399 5398 5396 5394 5393 5392 5390 5389 5387 5385 5383 5382 5380 5379 5377 5375 5374 5372 5370 5369 5367